Location: Chiroubles
(46.1812°N, 4.6660°E)
Time: 22:23:12
(UTC+00:00)

SR - Pass Details

Date: 01 December 2020
Orbit: 575 x 880 km, 66.7° (Epoch: 23 January)

Event Time Altitude Azimuth Distance (km) Brightness Sun altitude
Rises 17:52:48 0° 221° (SW) 2,806 ? -19.4°
Reaches altitude 10° 17:54:59 10° 224° (SW) 1,933 ? -19.7°
Maximum altitude 17:59:16 63° 306° (NW) 698 ? -20.5°
Enters shadow 18:01:26 30° 18° (NNE) 1,157 ? -20.8°
